www.pogodaiklimat.ru

Погода и климат >> Архив погоды >> Мексика >> Toluca


ПОГОДА в Toluca

  • Прогноз погоды в Toluca
  • Монитор погоды в Toluca
  • Климат города

АРХИВ ПОГОДЫ в Toluca

Время (UTC), дата Ветер
(напр.,м/с)
 
Видим.   Явления Облачность Т
(С)
Тd
(С)
f
(%)
Тe
(С)
Тes
(С)
Комфортность P
(гПа)
Po
(гПа)
Тmin
(С)
Tmax
(С)
R
(мм)
R24
(мм)
S
(см)
18 9.08 СЗ 2 30 км {туман} 9/3 800 м
[Cu med, cong Ac und Ci]
+19.6 +5.4 39 +21 +29 комфорт 1012.7 739.2 +8.3 +20.7
21 9.08 С 3 25 км {дождь} 9/9 800 м
[Cu med, cong]
+20.4 +7.9 44 +22 +23 комфорт 1008.8 738.3 0.0
00 10.08 СЗ 2 20 км дождь 10/10 600 м
[Cu med, cong]
+16.5 +12.0 75 +17 +17 1006.7 738.3 0.0
03 10.08 СЗ 3
{6}
10 км слабый дождь 9/9 600 м
[Sc diur, vesp]
+12.4 +10.2 86 +11 +11 1006.9 738.5 3
06 10.08 З 3 10 км {дождь} 9/5 600 м
[Sc diur, vesp Ac und]
+11.6 +9.5 87 +10 +10 1009.0 738.6 3
09 10.08 З 4
{5}
10 км слабый дождь 10/5 800 м
[Sc diur, vesp As trans]
+12.0 +10.4 90 +10 +10 1009.1 736.8 0.4
12 10.08 слабый дождь н/о +11.9 +10.8 93 +34 +34 очень
душно
1009.2 735.8 +10.5 +23.1 2
15 10.08 СЗ 3 10 км дождь 10/0 2000 м
[As op]
+12.1 +10.9 92 +10 +12 1010.5 736.5 13
18 10.08 СЗ 2 10 км дождь 10/5 600 м
[Sc diur, vesp As op]
+13.6 +11.9 89 +13 +15 1010.2 736.6 19
21 10.08 ЮВ 5 10 км слабый дождь {гроза} 10/8 700 м
[Cb cap As op]
+13.9 +11.9 88 +12 +12 1009.6 736.5 8
03 11.08 Ю 3
{6}
10 км {гроза, дождь} 9/9 800 м
[Cb cap]
+11.9 +9.8 87 +10 +10 1012.9 739.0 0.2
06 11.08 ЮВ 2 10 км {гроза, дождь} 10/10 600 м
[Cb cap]
+12.3 +9.4 82 +11 +11 1014.4 739.9 0.2
09 11.08 ЮВ 5
{7}
10 км 3/1 800 м
[Sc diur, vesp Ac trans]
+11.8 +9.6 86 +9 +9 1014.4 739.5
12 11.08 ЮВ 4 20 км 3/3 800 м
[Sc diur, vesp]
+11.0 +9.1 88 +9 +9 1015.4 739.9 +8.3 +23.1
15 11.08 ЮВ 5
{6}
30 км 3/3 800 м
[Cu med, cong]
+15.2 +9.0 66 +14 +17 1016.6 741.1
18 11.08 ЮВ 5
{6}
30 км 5/3 800 м
[Cu med, cong Ac trans Ci]
+18.5 +9.1 54 +19 +25 1015.1 741.2 +9.6 +19.5
21 11.08 ЮВ 2 35 км 10/10 800 м
[Cb cap]
+20.8 +9.0 47 +23 +23 комфорт 1010.9 739.9
00 12.08 Ю 2 10 км 10/10 600 м
[Cb cap]
+19.4 +8.6 50 +21 +21 комфорт 1007.0 738.6 +9.6 +23.2
03 12.08 В 1 10 км {гроза, дождь} 10/10 800 м
[Cb cap]
+13.9 +10.3 79 +14 +14 1008.2 739.7 2
06 12.08 ЮВ 1 10 км {гроза, дождь} 5/5 600 м
[Cb cap]
+12.4 +9.2 81 +12 +12 1010.7 740.6 2
09 12.08 ЮЗ 1 10 км 3/1 800 м
[Sc diur, vesp Ac As]
+10.2 +8.4 89 +10 +10 1012.4 739.7
12 12.08 Ю 1 25 км 1/0
[Ac und]
+7.2 +5.6 90 +6 +6 1015.4 739.8 +6.0 +23.2
15 12.08 СВ 1 30 км {туман} туман ясно +15.3 +8.2 63 +16 +26 1017.0 740.2
18 12.08 В 2 30 км {туман} туман 4/4 800 м
[Cu med, cong]
+21.3 +8.1 43 +22 +35 комфорт 1015.0 740.2 +5.8 +21.9
21 12.08 ЮВ 4 10 км 9/9 800 м
[Cb calv]
+17.4 +9.4 59 +17 +18 1011.2 739.2
00 13.08 ЮВ 2 15 км мгла {туман} 5/3 600 м
[Cb calv Ac trans Ci]
+18.3 +8.1 51 +19 +20 1007.2 738.3 +5.8 +22.8
03 13.08 Ю 1 10 км 8/4 800 м
[Cb cap Ac und]
+14.8 +8.3 65 +15 +15 1004.5 739.3
06 13.08 С 1 10 км {дождь} 5/3 600 м
[Sc diur, vesp Ac und]
+12.2 +8.8 80 +12 +12 1009.9 739.7 1
09 13.08 В 1 10 км 4/1 800 м
[Sc diur, vesp Ac As]
+11.2 +9.1 87 +11 +11 1011.1 739.1
12 13.08 ЮВ 1 25 км 4/1 800 м
[Sc diur, vesp Ac As]
+10.4 +8.3 87 +10 +10 1013.0 739.0 +9.3 +22.8
15 13.08 Ю 1 30 км 3/1 800 м
[Cu hum Ci sp]
+15.5 +9.9 69 +16 +24 1015.6 740.1
18 13.08 ЮВ 2 35 км 4/4 800 м
[Cu med, cong]
+20.6 +9.5 49 +23 +36 комфорт 1013.4 739.9 +9.2 +21.0
21 13.08 ЮВ 2 25 км мгла {туман} 4/4 800 м
[Cu med, cong]
+22.9 +8.6 40 +24 +33 комфорт 1008.3 738.2
00 14.08 ЮВ 3 15 км гроза без осадков 9/9 600 м
[Cb calv]
+20.0 +9.5 51 +22 +22 комфорт 1004.0 737.0 +9.2 +24.0
03 14.08 В 1 10 км зарница {гроза, дождь} 10/10 800 м
[Cb cap]
+13.7 +10.8 83 +14 +14 1005.6 738.6 3
06 14.08 СЗ 1 10 км слабый дождь {гроза} 10/10 600 м
[Cb cap]
+12.8 +10.3 85 +13 +13 1008.5 739.5 4
09 14.08 СЗ 1 10 км слабый дождь 10/8 800 м
[Cb calv Ac und]
+11.8 +10.2 90 +12 +12 1009.9 738.6 1
12 14.08 ЮВ 1 25 км {дождь} 1/0
[Ac As]
+10.1 +8.8 92 +10 +10 1012.3 738.3 1
15 14.08 СЗ 1 18 км {туман} туман 6/4 800 м
[Cu med, cong Ci sp]
+14.6 +11.1 80 +15 +20 1014.3 739.2
18 14.08 СВ 1 20 км {туман} 6/6 800 м
[Cb cap]
+19.7 +8.7 49 +22 +32 комфорт 1012.3 739.0 +8.6 +21.0
21 14.08 С 3 30 км 8/8 800 м
[Cb calv]
+20.5 +9.6 50 +22 +25 комфорт 1007.5 737.4
00 15.08 С 1 30 км 5/4 600 м
[Cb calv Ci]
+19.6 +10.6 56 +22 +23 комфорт 1005.1 737.3 +8.6 +23.5
03 15.08 Ю 1 10 км 5/5 800 м
[Cb cap]
+13.7 +10.1 79 +14 +14 1005.2 738.1
06 15.08 З 1 10 км 1/1 600 м
[Sc diur, vesp]
+10.3 +7.8 84 +10 +10 1008.2 738.8 +8.6 +23.5
09 15.08 С 1 10 км ясно +8.1 +5.7 85 +7 +7 1010.8 738.2
12 15.08 Ю 1 20 км 3/0
[Ac trans]
+6.7 +4.2 84 +6 +6 1014.9 738.6 +6.5 +23.1
15 15.08 СВ 1 30 км {туман} туман 4/1 800 м
[Cu hum Cs]
+14.2 +7.5 64 +15 +23 1017.1 739.2
18 15.08 СЗ 1 25 км {туман} туман 4/3 800 м
[Cu med, cong Cs]
+21.5 +7.6 41 +22 +40 комфорт 1014.4 739.0 +6.3 +21.9
21 15.08 С 2 15 км гроза без осадков 8/8 800 м
[Cb calv]
+21.6 +8.7 44 +23 +26 комфорт 1007.8 737.1
00 16.08 Ю 3 10 км гроза без осадков {дождь} 10/10 600 м
[Cb calv]
+16.7 +9.9 64 +17 +17 1004.8 737.1 0.8
03 16.08 СЗ 1 10 км {гроза} 10/10 800 м
[Cb cap]
+13.8 +10.5 80 +14 +14 1005.8 738.5
06 16.08 Ю 1 10 км 10/10 600 м
[Cb cap]
+13.1 +10.3 83 +13 +13 1009.2 739.7 +6.3 +25.2
12 16.08 СЗ 1 10 км мгла {дождь} 8/5 600 м
[Sc diur, vesp Ac und]
+11.4 +9.8 90 +11 +11 1013.2 739.2 0.5
15 16.08 ЮВ 2 25 км {туман} 5/3 800 м
[Cu med, cong Ac trans Ci sp]
+15.7 +9.8 68 +16 +21 1014.4 739.9

 

Местоположение метеостанции Toluca (Мексика): широта 19.28 долгота -99.68 высота над уровнем моря 2720 м.

В архиве по умолчанию представлена погода в Toluca за последнюю неделю. Архивные данные за месяц целиком и за предыдущие месяцы, начиная с января 2011 года, Вы можете получить, выбрав интересующий диапазон дат из раскрывающегося списка и нажав кнопку "Ввод!".

Внимание! Время в таблицах - всемирное. Для получения местного времени необходимо прибавить поправку, которая в Toluca равна -6 ч.

Смотрите также архив погоды в соседних городах и на ближайших метеорологических станциях:

Погода в Geografia Unam (Мексика) (53 км)
Погода в Mexico City (Мексика) (54 км)
Погода в Cuernavaca (Мексика) (65 км)
Погода в Zacatepec (Мексика) (84 км)
Погода в Pachuca (Мексика) (136 км)
Погода в Tlaxcala (Мексика) (150 км)
Погода в Tlaxcala Airport (Мексика) (151 км)
Погода в Morelia (Мексика) (156 км)
Погода в Puebla (Мексика) (162 км)
Погода в Queretaro (Мексика) (163 км)

Пояснения к столбцам:

Ветер - указаны скорость ветра в м/с - средняя за 10 мин, порывы в срок и между сроками (в фигурных скобках) и направление, откуда дует ветер: С - северный, СВ - северо-восточный, В - восточный, ЮВ - юго-восточный, Ю - южный, ЮЗ - юго-западный, З - западный, СЗ - северо-западный.
Видимость - горизонтальная дальность видимости в метрах или километрах. При видимости от 1 до 10 км при отсутствии осадков обычно наблюдается дымка, при ухудшении видимости до 1 км и менее - туман. В сухую погоду видимость может ухудшаться дымом, пылью или мглою.
Явления - указаны атмосферные явления, наблюдавшиеся в срок или в последний час перед сроком; фигурными скобками обозначены явления, наблюдавшиеся между сроками (за 1-3 часа до срока); квадратными скобками обозначены град или гололедные отложения с указанием их диаметра в мм.
Облачность - указаны через наклонную черту общая и нижняя облачность в баллах и высота нижней границы облаков в метрах; квадратными скобками обозначены формы облаков: Ci - перистые, Cs - перисто-слоистые, Cc - перисто-кучевые, Ac - высококучевые, As - высокослоистые, Sc - слоисто-кучевые, Ns - слоисто-дождевые, Cu - кучевые, Cb - кучево-дождевые. Подробнее классификацию облаков см. в Атласе облаков (PDF).
T - Температура воздуха - температура, измеренная на высоте 2 м над землей.
Td - Температура точки росы - температура, при понижении до которой содержащийся в воздухе водяной пар достигнет насыщения.
f - Относительная влажность воздуха - влажноcть воздуха, измеренная на высоте 2 м над землей.
Te - Эффективная температура - температура, которую ощущает одетый по сезону человек в тени. Характеристика душности погоды. При расчете учитывается влияние влажности воздуха и скорости ветра на теплоощущения человека.
Tes - Эффективная температура на солнце - температура, которую ощущает человек, с поправкой на солнечный нагрев. Характеристика знойности погоды. Зависит от высоты солнца над горизонтом, облачности и скорости ветра. Ночью, в пасмурную погоду, а также при ветре 12 м/с и более поправка равна нулю.
P - Атмосферное давление - приведенное к уровню моря атмосферное давление.
Po - Атмосферное давление - измеренное на уровне метеостанции атмосферное давление.
Tmin - Минимальная температура - минимум температуры воздуха на высоте 2 м над землей.
Tmax - Максимальная температура - максимум температуры воздуха на высоте 2 м над землей.
R - Количество осадков - Количество выпавших осадков за период времени, мм. При наведении курсора мыши на число - период времени, за который выпало указанное количество осадков.
R24 - Количество осадков - Количество выпавших осадков за 24 часа, мм.
S - Снежный покров - Высота снежного покрова, см. При наведении курсора мыши на число - состояние снежного покрова и степень покрытия местности в баллах.